User: anonymous   Login
Location: Beaurevoir
(49.9971°N, 3.3085°E)
Time: 18:56:27
(UTC+00:00)
Language:

Cosmos 1408 - Orbit

View from above orbital plane
View from above orbital plane
View from above satellite
View from above satellite

Ground track
Ground track

The orbit data is extracted from the following two-line orbital elements,

1 13552U 82092A   24205.55434487  .00077782  00000-0  62336-3 0  9994
2 13552  82.5517 203.5759 0013361 178.8680 181.2615 15.70645229151180
Epoch (UTC): 23 July 2024 13:18:15
Eccentricity: 0.0013361
inclination: 82.5517°
perigee height: 348 km
apogee height: 366 km
right ascension of ascending node: 203.5759°
argument of perigee: 178.8680°
revolutions per day: 15.70645229
mean anomaly at epoch: 181.2615°
orbit number at epoch: 15118

The dashed part of the orbit path shows where the satellite is in the earth's shadow,  

DLR